[[{"header":{"parameterUnit":"m.s-1","parameterCategory":1,"la1":30.2991,"la2":30.254,"lo1":-89.0895,"lo2":-89.0444,"dy":0.0017,"dx":0.0017,"nx":28,"ny":28,"refTime":"2023-09-15T09:00:00:Z","depth":0,"parameterNumber":2,"parameterNumberName":"U-component_of_WINDS"},"data":[0,0,0,0,0,0,0,0,0,0,0,0,0,0,0,0,0,0,0,0,0,0,0,0,0,0,0,0,0,0,0,0,0,0,0,0,0,0,0,0,0,0,0,0,0,0,0,0,0,0,0,0,0,0,0,0,0,0,0.9595,0.9595,0,0.9581,0.958,0.958,0.9499,0.9497,0.9495,0.9493,0.9484,0.9485,0.9487,0,0,0,0,0,0,0,0,0,0,0,0,0,0.9557,0.9558,0.9595,0.9595,0.9595,0.9581,0.958,0.958,0.9499,0.9497,0.9495,0.9492,0.9483,0.9485,0.9487,0,0,0,0,0,0,0,0,0,0,0,0,0,0.9562,0.9559,0.9595,0.9553,0.9549,0.9581,0.958,0.958,0.95,0.9497,0.9494,0.9491,0.9483,0.9485,0.9487,0.9561,0,0,0.9495,0.9496,0,0,0,0,0,0,0,0,0.9561,0.9563,0.9559,0.9556,0.9551,0.9538,0.9563,0.9574,0.9501,0.9519,0.9493,0.949,0.9505,0.9505,0.9509,0.9561,0.956,0.9495,0.9496,0.9497,0.9498,0,0,0,0,0,0,0,0.9561,0.9563,0.959,0.9559,0.9554,0.9536,0.9533,0.9565,0.9529,0.9517,0.9511,0.951,0.9502,0.9507,0.9508,0.956,0.9495,0.9497,0.9498,0.9499,0.967,0.9673,0,0,0,0,0,0,0.9566,0.9564,0.959,0.9589,0.9549,0.9539,0.9536,0.9546,0.9528,0.9522,0.9512,0.9506,0.9504,0.9506,0.9508,0.9592,0.9497,0.9499,0.9501,0.9667,0.9671,0.9674,0,0,0,0,0,0,0.9566,0.9569,0.9591,0.9575,0.9576,0.9542,0.9554,0.9547,0.9552,0.9525,0.9518,0.9524,0.9502,0.9504,0.9548,0.959,0.9501,0.9503,0.9663,0.9668,0.9672,0.9761,0,0,0,0,0,0,0.9565,0.957,0.9596,0.9576,0.9577,0.963,0.9557,0.9549,0.9555,0.9547,0.9534,0.9529,0.95,0.9544,0.955,0.9592,0.9505,0.9659,0.9665,0.9671,0.9754,0.9768,0.978,0,0,0,0,0,0.9564,0.9624,0.9598,0.9602,0.9609,0.9633,0.9633,0.9598,0.9559,0.9586,0.9568,0.9529,0.9585,0.955,0.9555,0.9598,0.9656,0.9664,0.967,0.9748,0.9765,0.978,0,0,0,0,0,0,0.9653,0.962,0.9592,0.9646,0.9642,0.9619,0.9652,0.9617,0.9626,0.9618,0.9575,0.9572,0.9622,0.9615,0.9576,0.9668,0.9614,0.9622,0.9671,0.9687,0.97,0.9701,0.9507,0,0,0,0,0,0.9678,0.9698,0.9669,0.972,0.9719,0.9686,0.9695,0.9667,0.9662,0.9661,0.9647,0.9645,0.9662,0.9674,0.9688,0.9752,0.9748,0.9785,0.9798,0.9809,0.9817,0.9849,0.9865,0.9697,0.9697,0.9697,0,0,0.9732,0.9716,0.9732,0.9737,0.9731,0.9754,0.9685,0.9713,0.9729,0.9666,0.9705,0.9695,0.969,0.9744,0.9767,0.9739,0.9862,0.9818,0.9826,0.9828,0.9858,0.9874,0.9888,0.9702,0.9701,0.97,0,0,0.984,0.9831,0.9871,0.9866,0.9857,0.9834,0.9844,0.9825,0.9815,0.9853,0.9806,0.9826,0.9856,0.9854,0.9857,0.9963,0.9927,0.997,1.0038,1.007,1.0083,1.0095,1.0132,1.0146,0.9977,0.9978,0.9978,0,0.9909,0.9939,0.9897,0.9927,0.9931,0.9872,0.9913,0.9911,0.9908,0.9912,0.988,0.9916,0.9909,0.9961,0.9986,0.9991,1.0001,0.9971,1.0084,1.0095,1.0106,1.0141,1.0155,0.9983,0.9982,0.9982,0.9981,0,1.0023,1.0045,1.0079,1.0075,1.0083,1.0118,1.0083,1.0096,1.0067,1.0048,1.0088,1.0077,1.0087,1.0097,1.0071,1.0146,1.0129,1.0092,1.0036,1.0127,1.016,1.0173,0.999,0.9988,0.9987,0.9985,0,0,1.0189,1.0159,1.0172,1.0169,1.0154,1.0171,1.0204,1.0211,1.0223,1.0223,1.025,1.0276,1.024,1.0244,1.0217,1.0245,1.0329,1.0204,1.0203,1.0227,1.041,1.0438,1.0455,1.0305,1.0308,1.031,1.0411,0,1.0292,1.0345,1.0307,1.0367,1.0386,1.033,1.0359,1.0353,1.0336,1.0351,1.0333,1.0352,1.0304,1.0306,1.0331,1.0314,1.0366,1.0306,1.0331,1.0332,1.0333,1.0472,1.0502,1.0598,1.0423,1.0425,1.0427,0,1.042,1.0423,1.0484,1.0463,1.047,1.0496,1.0499,1.0514,1.0507,1.0493,1.0496,1.0461,1.0492,1.0438,1.0481,1.0441,1.0449,1.0442,1.0445,1.0446,1.0385,1.0476,1.0627,1.0642,1.0447,1.0445,1.0444,0,1.0534,1.0553,1.0591,1.059,1.0567,1.0587,1.0579,1.0568,1.0575,1.0579,1.0582,1.0591,1.0596,1.0603,1.0572,1.0535,1.0619,1.0562,1.0609,1.061,1.0629,1.0629,1.0784,1.0635,1.0635,1.0635,1.0634,0,1.0654,1.0693,1.0642,1.0665,1.0708,1.0665,1.0709,1.0695,1.0685,1.0706,1.0659,1.068,1.0637,1.0654,1.063,1.0669,1.0672,1.0661,1.0655,1.0666,1.0667,1.067,1.0663,1.0638,1.0638,1.0637,1.0636,0,1.0788,1.0755,1.0793,1.0767,1.0762,1.0794,1.0773,1.0794,1.0773,1.08,1.0804,1.0772,1.0789,1.0758,1.0772,1.0755,1.081,1.0793,1.0812,1.0807,1.0855,1.0851,1.1018,1.1038,1.0877,1.0878,1.088,0,1.0866,1.0895,1.0871,1.088,1.0874,1.089,1.0896,1.0855,1.0863,1.0856,1.0879,1.0891,1.0899,1.0929,1.0908,1.0918,1.0901,1.0959,1.0903,1.0912,1.0901,1.09,1.0902,1.0971,1.0973,1.0974,1.0975,0,1.1009,1.099,1.0999,1.1003,1.101,1.1012,1.101,1.1021,1.0977,1.0989,1.1005,1.1011,1.1023,1.1037,1.1042,1.1034,1.0998,1.0993,1.1004,1.1016,1.1025,1.102,1.0843,1.099,1.0988,1.0987,1.0986,1.0986,1.1117,1.1139,1.1125,1.1137,1.113,1.1129,1.1148,1.1128,1.114,1.1145,1.1121,1.1142,1.1133,1.1135,1.1132,1.1149,1.1123,1.114,1.1144,1.1149,1.1156,1.1023,1.115,1.1149,1.1149,1.1148,1.1148,0,1.1256,1.1244,1.1255,1.1252,1.1262,1.1224,1.122,1.1231,1.1249,1.1243,1.1251,1.1269,1.1281,1.126,1.1269,1.1287,1.127,1.129,1.1289,1.1287,1.1179,1.1168,1.1303,1.1303,1.1303,1.1303,1.1303,1.1303,1.1329,1.1364,1.1345,1.1376,1.1364,1.1383,1.1384,1.1383,1.1377,1.1398,1.1407,1.1393,1.1381,1.1389,1.1398,1.1392,1.1398,1.1424,1.1412,1.131,1.1295,1.1281,1.127,1.1425,1.1425,1.1519,1.152,1.152]},{"header":{"parameterUnit":"m.s-1","parameterCategory":1,"la1":30.2991,"la2":30.254,"lo1":-89.0895,"lo2":-89.0444,"dy":0.0017,"dx":0.0017,"nx":28,"ny":28,"refTime":"2023-09-15T09:00:00:Z","depth":0,"parameterNumber":3,"parameterNumberName":"V-component_of_WINDS"},"data":[0,0,0,0,0,0,0,0,0,0,0,0,0,0,0,0,0,0,0,0,0,0,0,0,0,0,0,0,0,0,0,0,0,0,0,0,0,0,0,0,0,0,0,0,0,0,0,0,0,0,0,0,0,0,0,0,0,0,-0.3748,-0.3749,0,-0.3817,-0.3818,-0.3819,-0.3896,-0.3897,-0.3898,-0.3899,-0.397,-0.3971,-0.3972,0,0,0,0,0,0,0,0,0,0,0,0,0,-0.3683,-0.3684,-0.3748,-0.3749,-0.375,-0.3817,-0.3818,-0.3819,-0.3896,-0.3897,-0.3898,-0.39,-0.397,-0.3971,-0.3972,0,0,0,0,0,0,0,0,0,0,0,0,0,-0.3728,-0.3684,-0.3748,-0.3796,-0.3801,-0.3817,-0.3818,-0.3819,-0.3895,-0.3897,-0.3899,-0.39,-0.397,-0.3971,-0.3972,-0.3946,0,0,-0.3976,-0.3977,0,0,0,0,0,0,0,0,-0.3725,-0.373,-0.3788,-0.3793,-0.3798,-0.385,-0.3821,-0.3862,-0.3895,-0.3859,-0.3899,-0.3901,-0.3929,-0.3933,-0.3943,-0.395,-0.3953,-0.3976,-0.3977,-0.3977,-0.3978,0,0,0,0,0,0,0,-0.3722,-0.3727,-0.3775,-0.3789,-0.3795,-0.3815,-0.3823,-0.3829,-0.3884,-0.3863,-0.3868,-0.3876,-0.3932,-0.3941,-0.3945,-0.3954,-0.3976,-0.3977,-0.3978,-0.3978,-0.3944,-0.3942,0,0,0,0,0,0,-0.3711,-0.3724,-0.3773,-0.3777,-0.3765,-0.3814,-0.3823,-0.3831,-0.3884,-0.3894,-0.3874,-0.3879,-0.3938,-0.3943,-0.3948,-0.3921,-0.3977,-0.3979,-0.3979,-0.3945,-0.3943,-0.3941,0,0,0,0,0,0,-0.371,-0.3715,-0.377,-0.3752,-0.3761,-0.3814,-0.3822,-0.3832,-0.3841,-0.3893,-0.3903,-0.3874,-0.394,-0.3946,-0.3946,-0.3925,-0.3979,-0.398,-0.3947,-0.3945,-0.3942,-0.3867,0,0,0,0,0,0,-0.3707,-0.3714,-0.3704,-0.3752,-0.3762,-0.3767,-0.3821,-0.3832,-0.3843,-0.385,-0.3895,-0.3904,-0.3942,-0.3944,-0.3947,-0.3927,-0.3981,-0.3949,-0.3946,-0.3943,-0.3872,-0.3862,-0.3854,0,0,0,0,0,-0.3705,-0.368,-0.3703,-0.3709,-0.3751,-0.3765,-0.3771,-0.3815,-0.3841,-0.3832,-0.3865,-0.3902,-0.3927,-0.3943,-0.3948,-0.3928,-0.3951,-0.3947,-0.3943,-0.3875,-0.3864,-0.3854,0,0,0,0,0,0,-0.3628,-0.3687,-0.3713,-0.3703,-0.3729,-0.3778,-0.3768,-0.3802,-0.382,-0.3826,-0.388,-0.3889,-0.3883,-0.3906,-0.3923,-0.3906,-0.3944,-0.3941,-0.3891,-0.3881,-0.3872,-0.3866,-0.3982,0,0,0,0,0,-0.361,-0.3617,-0.3669,-0.3655,-0.3666,-0.3715,-0.3723,-0.3755,-0.3783,-0.3795,-0.3828,-0.3854,-0.3868,-0.3876,-0.3891,-0.3876,-0.3887,-0.3865,-0.3856,-0.3848,-0.3845,-0.3839,-0.3829,-0.3929,-0.3929,-0.3929,0,0,-0.3573,-0.3606,-0.3607,-0.364,-0.3664,-0.367,-0.3723,-0.3728,-0.3733,-0.3795,-0.3797,-0.3823,-0.3856,-0.3848,-0.3846,-0.3867,-0.382,-0.3844,-0.3837,-0.3838,-0.3834,-0.3824,-0.3816,-0.3926,-0.3927,-0.3927,0,0,-0.3508,-0.3534,-0.3525,-0.3548,-0.3583,-0.3616,-0.3614,-0.3659,-0.3678,-0.3681,-0.3728,-0.3736,-0.3758,-0.378,-0.3794,-0.3739,-0.3774,-0.3742,-0.3696,-0.369,-0.3682,-0.3675,-0.3655,-0.3647,-0.3739,-0.3739,-0.3739,0,-0.3457,-0.3468,-0.3517,-0.3518,-0.3531,-0.3589,-0.3581,-0.36,-0.3639,-0.3647,-0.3669,-0.3699,-0.3726,-0.3724,-0.371,-0.372,-0.372,-0.3737,-0.3679,-0.3673,-0.3667,-0.3649,-0.3641,-0.3735,-0.3735,-0.3736,-0.3736,0,-0.3404,-0.3411,-0.34,-0.3435,-0.3448,-0.3444,-0.3492,-0.3499,-0.353,-0.3561,-0.3564,-0.3598,-0.3621,-0.3624,-0.3654,-0.3626,-0.3638,-0.3669,-0.3708,-0.3653,-0.3636,-0.363,-0.3729,-0.373,-0.3732,-0.3733,0,0,-0.3291,-0.3354,-0.3349,-0.3366,-0.341,-0.3417,-0.3416,-0.3439,-0.3444,-0.3469,-0.347,-0.3489,-0.3518,-0.3534,-0.3568,-0.3562,-0.3516,-0.3594,-0.3596,-0.3578,-0.3487,-0.3463,-0.3454,-0.354,-0.3539,-0.3538,-0.3484,0,-0.3233,-0.3236,-0.328,-0.327,-0.3277,-0.3332,-0.3332,-0.3359,-0.3388,-0.3399,-0.3431,-0.3443,-0.3481,-0.3491,-0.3488,-0.3522,-0.3498,-0.3527,-0.3541,-0.3541,-0.353,-0.3445,-0.3419,-0.3367,-0.3478,-0.3477,-0.3477,0,-0.3166,-0.3187,-0.3177,-0.3222,-0.3227,-0.3225,-0.3251,-0.326,-0.3292,-0.3314,-0.3332,-0.3371,-0.3374,-0.3412,-0.3418,-0.3436,-0.3445,-0.3462,-0.3462,-0.3464,-0.3504,-0.3444,-0.3352,-0.3343,-0.3467,-0.3468,-0.3468,0,-0.3083,-0.311,-0.3108,-0.3121,-0.3173,-0.3171,-0.3192,-0.3226,-0.3237,-0.326,-0.3268,-0.329,-0.3302,-0.3319,-0.3363,-0.3386,-0.3363,-0.3405,-0.3381,-0.338,-0.3372,-0.3372,-0.3279,-0.338,-0.338,-0.338,-0.338,0,-0.3013,-0.3005,-0.3071,-0.307,-0.3063,-0.3114,-0.3106,-0.3133,-0.3163,-0.3168,-0.3218,-0.3222,-0.328,-0.3291,-0.3325,-0.3324,-0.333,-0.3347,-0.3356,-0.3342,-0.334,-0.3348,-0.3352,-0.3378,-0.3379,-0.3379,-0.3379,0,-0.292,-0.2963,-0.2965,-0.3014,-0.3027,-0.3019,-0.3062,-0.3063,-0.3096,-0.3101,-0.3106,-0.3157,-0.3172,-0.3218,-0.3245,-0.3268,-0.3257,-0.3275,-0.3246,-0.3251,-0.3225,-0.3226,-0.3132,-0.3122,-0.323,-0.3229,-0.3228,0,-0.2871,-0.2866,-0.2916,-0.2923,-0.2942,-0.2953,-0.2965,-0.3016,-0.3026,-0.3063,-0.306,-0.3079,-0.3097,-0.3119,-0.3159,-0.318,-0.3198,-0.3164,-0.3201,-0.3187,-0.3196,-0.3196,-0.3195,-0.3155,-0.3153,-0.3152,-0.3151,0,-0.2781,-0.2803,-0.2818,-0.2841,-0.2854,-0.2875,-0.2898,-0.2901,-0.2958,-0.2968,-0.2984,-0.2998,-0.3026,-0.3044,-0.3072,-0.3095,-0.3132,-0.3139,-0.3135,-0.3119,-0.3102,-0.3111,-0.3222,-0.3141,-0.3142,-0.3143,-0.3143,-0.3144,-0.2708,-0.2706,-0.2741,-0.2756,-0.2779,-0.28,-0.2804,-0.2837,-0.2851,-0.2877,-0.2907,-0.292,-0.2954,-0.2995,-0.3015,-0.3026,-0.3046,-0.304,-0.3038,-0.3035,-0.3028,-0.3102,-0.3032,-0.3032,-0.3032,-0.3033,-0.3033,0,-0.2619,-0.2645,-0.2658,-0.269,-0.2702,-0.2737,-0.2765,-0.2773,-0.2783,-0.2812,-0.2829,-0.2847,-0.2866,-0.2908,-0.293,-0.2931,-0.2949,-0.2935,-0.2935,-0.294,-0.3009,-0.3011,-0.292,-0.292,-0.292,-0.292,-0.292,-0.292,-0.2575,-0.2573,-0.26,-0.2611,-0.2637,-0.265,-0.2663,-0.2682,-0.2705,-0.2724,-0.2739,-0.2767,-0.2801,-0.2826,-0.2845,-0.2857,-0.2863,-0.2843,-0.286,-0.2924,-0.2935,-0.2945,-0.2946,-0.2844,-0.2844,-0.279,-0.2789,-0.2789]}]]